Year,Month,Day,Hour,Minute,Value (Times are PST for temperature in C)
2018,10,15,00,00,4.20
2018,10,15,00,01,4.20
2018,10,15,00,02,4.20
2018,10,15,00,03,4.20
2018,10,15,00,04,4.20
2018,10,15,00,05,4.20
2018,10,15,00,06,4.20
2018,10,15,00,07,4.10
2018,10,15,00,08,4.10
2018,10,15,00,09,4.10
2018,10,15,00,10,4.10
2018,10,15,00,11,4.10
2018,10,15,00,12,4.10
2018,10,15,00,13,4.10
2018,10,15,00,14,4.10
2018,10,15,00,15,4.10
2018,10,15,00,16,4.10
2018,10,15,00,17,4.10
2018,10,15,00,18,4.10
2018,10,15,00,19,4.10
2018,10,15,00,20,4.10
2018,10,15,00,21,4.10
2018,10,15,00,22,4.10
2018,10,15,00,23,4.10
2018,10,15,00,24,4.10
2018,10,15,00,25,4.10
2018,10,15,00,26,4.10
2018,10,15,00,27,4.00
2018,10,15,00,28,4.00
2018,10,15,00,29,4.00
2018,10,15,00,30,4.00
2018,10,15,00,31,4.00
2018,10,15,00,32,4.10
2018,10,15,00,33,4.10
2018,10,15,00,34,4.10
2018,10,15,00,35,4.20
2018,10,15,00,36,4.20
2018,10,15,00,37,4.20
2018,10,15,00,38,4.30
2018,10,15,00,39,4.30
2018,10,15,00,40,4.30
2018,10,15,00,41,4.40
2018,10,15,00,42,4.40
2018,10,15,00,43,4.40
2018,10,15,00,44,4.50
2018,10,15,00,45,4.50
2018,10,15,00,46,4.60
2018,10,15,00,47,4.60
2018,10,15,00,48,4.60
2018,10,15,00,49,4.60
2018,10,15,00,50,4.60
2018,10,15,00,51,4.60
2018,10,15,00,52,4.60
2018,10,15,00,53,4.50
2018,10,15,00,54,4.50
2018,10,15,00,55,4.40
2018,10,15,00,56,4.40
2018,10,15,00,57,4.40
2018,10,15,00,58,4.40
2018,10,15,00,59,4.40
2018,10,15,01,00,4.40
2018,10,15,01,01,4.30
2018,10,15,01,02,4.30
2018,10,15,01,03,4.20
2018,10,15,01,04,4.20
2018,10,15,01,05,4.10
2018,10,15,01,06,4.10
2018,10,15,01,07,4.00
2018,10,15,01,08,4.00
2018,10,15,01,09,4.00
2018,10,15,01,10,4.00
2018,10,15,01,11,4.10
2018,10,15,01,12,4.10
2018,10,15,01,13,4.10
2018,10,15,01,14,4.20
2018,10,15,01,15,4.20
2018,10,15,01,16,4.30
2018,10,15,01,17,4.20
2018,10,15,01,18,4.20
2018,10,15,01,19,4.20
2018,10,15,01,20,4.10
2018,10,15,01,21,4.10
2018,10,15,01,22,4.10
2018,10,15,01,23,4.10
2018,10,15,01,24,4.20
2018,10,15,01,25,4.20
2018,10,15,01,26,4.30
2018,10,15,01,27,4.30
2018,10,15,01,28,4.40
2018,10,15,01,29,4.40
2018,10,15,01,30,4.40
2018,10,15,01,31,4.40
2018,10,15,01,32,4.30
2018,10,15,01,33,4.30
2018,10,15,01,34,4.20
2018,10,15,01,35,4.20
2018,10,15,01,36,4.20
2018,10,15,01,37,4.20
2018,10,15,01,38,4.30
2018,10,15,01,39,4.30
2018,10,15,01,40,4.40
2018,10,15,01,41,4.40
2018,10,15,01,42,4.40
2018,10,15,01,43,4.40
2018,10,15,01,44,4.30
2018,10,15,01,45,4.30
2018,10,15,01,46,4.20
2018,10,15,01,47,4.20
2018,10,15,01,48,4.10
2018,10,15,01,49,4.10
2018,10,15,01,50,4.00
2018,10,15,01,51,3.90
2018,10,15,01,52,3.90
2018,10,15,01,53,3.80
2018,10,15,01,54,3.80
2018,10,15,01,55,3.80
2018,10,15,01,56,3.90
2018,10,15,01,57,3.90
2018,10,15,01,58,3.90
2018,10,15,01,59,3.90
2018,10,15,02,00,3.90
2018,10,15,02,01,3.80
2018,10,15,02,02,3.80
2018,10,15,02,03,3.80
2018,10,15,02,04,3.80
2018,10,15,02,05,3.80
2018,10,15,02,06,3.90
2018,10,15,02,07,3.90
2018,10,15,02,08,3.90
2018,10,15,02,09,3.80
2018,10,15,02,10,3.80
2018,10,15,02,11,3.80
2018,10,15,02,12,3.80
2018,10,15,02,13,3.80
2018,10,15,02,14,3.70
2018,10,15,02,15,3.70
2018,10,15,02,16,3.70
2018,10,15,02,17,3.80
2018,10,15,02,18,3.80
2018,10,15,02,19,3.70
2018,10,15,02,20,3.70
2018,10,15,02,21,3.70
2018,10,15,02,22,3.60
2018,10,15,02,23,3.60
2018,10,15,02,24,3.50
2018,10,15,02,25,3.50
2018,10,15,02,26,3.50
2018,10,15,02,27,3.40
2018,10,15,02,28,3.40
2018,10,15,02,29,3.40
2018,10,15,02,30,3.40
2018,10,15,02,31,3.30
2018,10,15,02,32,3.30
2018,10,15,02,33,3.30
2018,10,15,02,34,3.30
2018,10,15,02,35,3.30
2018,10,15,02,36,3.30
2018,10,15,02,37,3.30
2018,10,15,02,38,3.30
2018,10,15,02,39,3.30
2018,10,15,02,40,3.30
2018,10,15,02,41,3.30
2018,10,15,02,42,3.30
2018,10,15,02,43,3.30
2018,10,15,02,44,3.30
2018,10,15,02,45,3.30
2018,10,15,02,46,3.30
2018,10,15,02,47,3.30
2018,10,15,02,48,3.30
2018,10,15,02,49,3.30
2018,10,15,02,50,3.30
2018,10,15,02,51,3.20
2018,10,15,02,52,3.20
2018,10,15,02,53,3.20
2018,10,15,02,54,3.20
2018,10,15,02,55,3.10
2018,10,15,02,56,3.10
2018,10,15,02,57,3.10
2018,10,15,02,58,3.10
2018,10,15,02,59,3.10
2018,10,15,03,00,3.00
2018,10,15,03,01,3.00
2018,10,15,03,02,2.90
2018,10,15,03,03,2.90
2018,10,15,03,04,2.90
2018,10,15,03,05,2.90
2018,10,15,03,06,2.90
2018,10,15,03,07,2.90
2018,10,15,03,08,2.90
2018,10,15,03,09,2.80
2018,10,15,03,10,2.80
2018,10,15,03,11,2.80
2018,10,15,03,12,2.90
2018,10,15,03,13,3.00
2018,10,15,03,14,3.10
2018,10,15,03,15,3.10
2018,10,15,03,16,3.10
2018,10,15,03,17,3.10
2018,10,15,03,18,3.20
2018,10,15,03,19,3.20
2018,10,15,03,20,3.20
2018,10,15,03,21,3.20
2018,10,15,03,22,3.20
2018,10,15,03,23,3.10
2018,10,15,03,24,3.10
2018,10,15,03,25,3.10
2018,10,15,03,26,3.00
2018,10,15,03,27,3.00
2018,10,15,03,28,3.00
2018,10,15,03,29,2.90
2018,10,15,03,30,2.90
2018,10,15,03,31,2.90
2018,10,15,03,32,2.80
2018,10,15,03,33,2.80
2018,10,15,03,34,2.80
2018,10,15,03,35,2.80
2018,10,15,03,36,2.80
2018,10,15,03,37,2.80
2018,10,15,03,38,2.80
2018,10,15,03,39,2.80
2018,10,15,03,40,2.80
2018,10,15,03,41,2.80
2018,10,15,03,42,2.80
2018,10,15,03,43,2.80
2018,10,15,03,44,2.80
2018,10,15,03,45,2.80
2018,10,15,03,46,2.80
2018,10,15,03,47,2.80
2018,10,15,03,48,2.80
2018,10,15,03,49,2.80
2018,10,15,03,50,2.80
2018,10,15,03,51,2.80
2018,10,15,03,52,2.80
2018,10,15,03,53,2.80
2018,10,15,03,54,2.80
2018,10,15,03,55,2.80
2018,10,15,03,56,2.80
2018,10,15,03,57,2.80
2018,10,15,03,58,2.80
2018,10,15,03,59,2.80
2018,10,15,04,00,2.80
2018,10,15,04,01,2.80
2018,10,15,04,02,2.80
2018,10,15,04,03,2.80
2018,10,15,04,04,2.70
2018,10,15,04,05,2.70
2018,10,15,04,06,2.70
2018,10,15,04,07,2.70
2018,10,15,04,08,2.70
2018,10,15,04,09,2.70
2018,10,15,04,10,2.70
2018,10,15,04,11,2.70
2018,10,15,04,12,2.70
2018,10,15,04,13,2.70
2018,10,15,04,14,2.70
2018,10,15,04,15,2.70
2018,10,15,04,16,2.70
2018,10,15,04,17,2.70
2018,10,15,04,18,2.60
2018,10,15,04,19,2.60
2018,10,15,04,20,2.60
2018,10,15,04,21,2.60
2018,10,15,04,22,2.60
2018,10,15,04,23,2.70
2018,10,15,04,24,2.80
2018,10,15,04,25,2.80
2018,10,15,04,26,2.90
2018,10,15,04,27,2.90
2018,10,15,04,28,2.90
2018,10,15,04,29,2.90
2018,10,15,04,30,2.90
2018,10,15,04,31,2.90
2018,10,15,04,32,2.90
2018,10,15,04,33,2.90
2018,10,15,04,34,2.80
2018,10,15,04,35,2.80
2018,10,15,04,36,2.80
2018,10,15,04,37,2.80
2018,10,15,04,38,2.70
2018,10,15,04,39,2.70
2018,10,15,04,40,2.70
2018,10,15,04,41,2.70
2018,10,15,04,42,2.60
2018,10,15,04,43,2.60
2018,10,15,04,44,2.60
2018,10,15,04,45,2.60
2018,10,15,04,46,2.60
2018,10,15,04,47,2.50
2018,10,15,04,48,2.50
2018,10,15,04,49,2.40
2018,10,15,04,50,2.40
2018,10,15,04,51,2.40
2018,10,15,04,52,2.40
2018,10,15,04,53,2.30
2018,10,15,04,54,2.30
2018,10,15,04,55,2.30
2018,10,15,04,56,2.30
2018,10,15,04,57,2.30
2018,10,15,04,58,2.30
2018,10,15,04,59,2.20
2018,10,15,05,00,2.20
2018,10,15,05,01,2.20
2018,10,15,05,02,2.20
2018,10,15,05,03,2.20
2018,10,15,05,04,2.20
2018,10,15,05,05,2.20
2018,10,15,05,06,2.20
2018,10,15,05,07,2.30
2018,10,15,05,08,2.30
2018,10,15,05,09,2.30
2018,10,15,05,10,2.30
2018,10,15,05,11,2.30
2018,10,15,05,12,2.30
2018,10,15,05,13,2.40
2018,10,15,05,14,2.40
2018,10,15,05,15,2.40
2018,10,15,05,16,2.40
2018,10,15,05,17,2.50
2018,10,15,05,18,2.50
2018,10,15,05,19,2.50
2018,10,15,05,20,2.50
2018,10,15,05,21,2.50
2018,10,15,05,22,2.50
2018,10,15,05,23,2.40
2018,10,15,05,24,2.40
2018,10,15,05,25,2.40
2018,10,15,05,26,2.30
2018,10,15,05,27,2.30
2018,10,15,05,28,2.30
2018,10,15,05,29,2.30
2018,10,15,05,30,2.30
2018,10,15,05,31,2.40
2018,10,15,05,32,2.30
2018,10,15,05,33,2.30
2018,10,15,05,34,2.30
2018,10,15,05,35,2.30
2018,10,15,05,36,2.30
2018,10,15,05,37,2.30
2018,10,15,05,38,2.40
2018,10,15,05,39,2.50
2018,10,15,05,40,2.50
2018,10,15,05,41,2.50
2018,10,15,05,42,2.50
2018,10,15,05,43,2.60
2018,10,15,05,44,2.50
2018,10,15,05,45,2.50
2018,10,15,05,46,2.40
2018,10,15,05,47,2.40
2018,10,15,05,48,2.30
2018,10,15,05,49,2.30
2018,10,15,05,50,2.30
2018,10,15,05,51,2.20
2018,10,15,05,52,2.20
2018,10,15,05,53,2.20
2018,10,15,05,54,2.10
2018,10,15,05,55,2.10
2018,10,15,05,56,2.10
2018,10,15,05,57,2.00
2018,10,15,05,58,2.00
2018,10,15,05,59,1.90
2018,10,15,06,00,1.90
2018,10,15,06,01,1.90
2018,10,15,06,02,1.90
2018,10,15,06,03,1.90
2018,10,15,06,04,1.80
2018,10,15,06,05,1.80
2018,10,15,06,06,1.80
2018,10,15,06,07,1.80
2018,10,15,06,08,1.80
2018,10,15,06,09,1.80
2018,10,15,06,10,1.70
2018,10,15,06,11,1.70
2018,10,15,06,12,1.70
2018,10,15,06,13,1.70
2018,10,15,06,14,1.80
2018,10,15,06,15,1.80
2018,10,15,06,16,1.90
2018,10,15,06,17,2.00
2018,10,15,06,18,2.10
2018,10,15,06,19,2.10
2018,10,15,06,20,2.10
2018,10,15,06,21,2.10
2018,10,15,06,22,2.10
2018,10,15,06,23,2.00
2018,10,15,06,24,2.00
2018,10,15,06,25,1.90
2018,10,15,06,26,1.90
2018,10,15,06,27,1.80
2018,10,15,06,28,1.80
2018,10,15,06,29,1.80
2018,10,15,06,30,1.70
2018,10,15,06,31,1.70
2018,10,15,06,32,1.70
2018,10,15,06,33,1.70
2018,10,15,06,34,1.60
2018,10,15,06,35,1.60
2018,10,15,06,36,1.60
2018,10,15,06,37,1.60
2018,10,15,06,38,1.60
2018,10,15,06,39,1.60
2018,10,15,06,40,1.60
2018,10,15,06,41,1.60
2018,10,15,06,42,1.60
2018,10,15,06,43,1.60
2018,10,15,06,44,1.60
2018,10,15,06,45,1.60
2018,10,15,06,46,1.60
2018,10,15,06,47,1.60
2018,10,15,06,48,1.60
2018,10,15,06,49,1.60
2018,10,15,06,50,1.50
2018,10,15,06,51,1.50
2018,10,15,06,52,1.50
2018,10,15,06,53,1.50
2018,10,15,06,54,1.50
2018,10,15,06,55,1.50
2018,10,15,06,56,1.40
2018,10,15,06,57,1.40
2018,10,15,06,58,1.50
2018,10,15,06,59,1.50
2018,10,15,07,00,1.60
2018,10,15,07,01,1.60
2018,10,15,07,02,1.60
2018,10,15,07,03,1.60
2018,10,15,07,04,1.60
2018,10,15,07,05,1.60
2018,10,15,07,06,1.60
2018,10,15,07,07,1.60
2018,10,15,07,08,1.60
2018,10,15,07,09,1.60
2018,10,15,07,10,1.60
2018,10,15,07,11,1.70
2018,10,15,07,12,1.70
2018,10,15,07,13,1.70
2018,10,15,07,14,1.70
2018,10,15,07,15,1.70
2018,10,15,07,16,1.70
2018,10,15,07,17,1.70
2018,10,15,07,18,1.70
2018,10,15,07,19,1.60
2018,10,15,07,20,1.60
2018,10,15,07,21,1.60
2018,10,15,07,22,1.60
2018,10,15,07,23,1.60
2018,10,15,07,24,1.60
2018,10,15,07,25,1.60
2018,10,15,07,26,1.60
2018,10,15,07,27,1.50
2018,10,15,07,28,1.50
2018,10,15,07,29,1.50
2018,10,15,07,30,1.40
2018,10,15,07,31,1.40
2018,10,15,07,32,1.40
2018,10,15,07,33,1.30
2018,10,15,07,34,1.30
2018,10,15,07,35,1.30
2018,10,15,07,36,1.30
2018,10,15,07,37,1.30
2018,10,15,07,38,1.30
2018,10,15,07,39,1.30
2018,10,15,07,40,1.30
2018,10,15,07,41,1.20
2018,10,15,07,42,1.20
2018,10,15,07,43,1.20
2018,10,15,07,44,1.20
2018,10,15,07,45,1.20
2018,10,15,07,46,1.20
2018,10,15,07,47,1.20
2018,10,15,07,48,1.20
2018,10,15,07,49,1.20
2018,10,15,07,50,1.20
2018,10,15,07,51,1.20
2018,10,15,07,52,1.20
2018,10,15,07,53,1.20
2018,10,15,07,54,1.20
2018,10,15,07,55,1.20
2018,10,15,07,56,1.20
2018,10,15,07,57,1.20
2018,10,15,07,58,1.20
2018,10,15,07,59,1.20
2018,10,15,08,00,1.20
2018,10,15,08,01,1.20
2018,10,15,08,02,1.30
2018,10,15,08,03,1.30
2018,10,15,08,04,1.20
2018,10,15,08,05,1.20
2018,10,15,08,06,1.30
2018,10,15,08,07,1.30
2018,10,15,08,08,1.40
2018,10,15,08,09,1.40
2018,10,15,08,10,1.40
2018,10,15,08,11,1.40
2018,10,15,08,12,1.40
2018,10,15,08,13,1.40
2018,10,15,08,14,1.40
2018,10,15,08,15,1.40
2018,10,15,08,16,1.40
2018,10,15,08,17,1.40
2018,10,15,08,18,1.40
2018,10,15,08,19,1.40
2018,10,15,08,20,1.30
2018,10,15,08,21,1.40
2018,10,15,08,22,1.40
2018,10,15,08,23,1.40
2018,10,15,08,24,1.50
2018,10,15,08,25,1.50
2018,10,15,08,26,1.50
2018,10,15,08,27,1.60
2018,10,15,08,28,1.60
2018,10,15,08,29,1.60
2018,10,15,08,30,1.60
2018,10,15,08,31,1.70
2018,10,15,08,32,1.70
2018,10,15,08,33,1.70
2018,10,15,08,34,1.70
2018,10,15,08,35,1.70
2018,10,15,08,36,1.80
2018,10,15,08,37,1.80
2018,10,15,08,38,1.80
2018,10,15,08,39,1.80
2018,10,15,08,40,1.80
2018,10,15,08,41,1.80
2018,10,15,08,42,1.80
2018,10,15,08,43,1.80
2018,10,15,08,44,1.80
2018,10,15,08,45,1.90
2018,10,15,08,46,1.90
2018,10,15,08,47,2.00
2018,10,15,08,48,2.10
2018,10,15,08,49,2.20
2018,10,15,08,50,2.30
2018,10,15,08,51,2.40
2018,10,15,08,52,2.40
2018,10,15,08,53,2.50
2018,10,15,08,54,2.60
2018,10,15,08,55,2.60
2018,10,15,08,56,2.70
2018,10,15,08,57,2.80
2018,10,15,08,58,2.90
2018,10,15,08,59,3.00
2018,10,15,09,00,3.10
2018,10,15,09,01,3.20
2018,10,15,09,02,3.30
2018,10,15,09,03,3.40
2018,10,15,09,04,3.50
2018,10,15,09,05,3.70
2018,10,15,09,06,3.70
2018,10,15,09,07,3.80
2018,10,15,09,08,3.90
2018,10,15,09,09,3.90
2018,10,15,09,10,4.00
2018,10,15,09,11,4.10
2018,10,15,09,12,4.20
2018,10,15,09,13,4.20
2018,10,15,09,14,4.30
2018,10,15,09,15,4.40
2018,10,15,09,16,4.40
2018,10,15,09,17,4.50
2018,10,15,09,18,4.50
2018,10,15,09,19,4.60
2018,10,15,09,20,4.60
2018,10,15,09,21,4.70
2018,10,15,09,22,4.70
2018,10,15,09,23,4.80
2018,10,15,09,24,4.80
2018,10,15,09,25,4.80
2018,10,15,09,26,4.90
2018,10,15,09,27,5.00
2018,10,15,09,28,5.00
2018,10,15,09,29,5.10
2018,10,15,09,30,5.20
2018,10,15,09,31,5.30
2018,10,15,09,32,5.40
2018,10,15,09,33,5.50
2018,10,15,09,34,5.50
2018,10,15,09,35,5.60
2018,10,15,09,36,5.60
2018,10,15,09,37,5.70
2018,10,15,09,38,5.70
2018,10,15,09,39,5.70
2018,10,15,09,40,5.80
2018,10,15,09,41,5.80
2018,10,15,09,42,5.90
2018,10,15,09,43,5.90
2018,10,15,09,44,6.00
2018,10,15,09,45,6.00
2018,10,15,09,46,6.10
2018,10,15,09,47,6.10
2018,10,15,09,48,6.20
2018,10,15,09,49,6.20
2018,10,15,09,50,6.30
2018,10,15,09,51,6.30
2018,10,15,09,52,6.30
2018,10,15,09,53,6.40
2018,10,15,09,54,6.40
2018,10,15,09,55,6.50
2018,10,15,09,56,6.60
2018,10,15,09,57,6.60
2018,10,15,09,58,6.70
2018,10,15,09,59,6.70
2018,10,15,10,00,6.80
2018,10,15,10,01,6.80
2018,10,15,10,02,6.80
2018,10,15,10,03,6.90
2018,10,15,10,04,6.90
2018,10,15,10,05,6.90
2018,10,15,10,06,6.90
2018,10,15,10,07,7.00
2018,10,15,10,08,7.00
2018,10,15,10,09,7.00
2018,10,15,10,10,7.00
2018,10,15,10,11,7.10
2018,10,15,10,12,7.10
2018,10,15,10,13,7.10
2018,10,15,10,14,7.20
2018,10,15,10,15,7.20
2018,10,15,10,16,7.20
2018,10,15,10,17,7.30
2018,10,15,10,18,7.30
2018,10,15,10,19,7.30
2018,10,15,10,20,7.40
2018,10,15,10,21,7.40
2018,10,15,10,22,7.40
2018,10,15,10,23,7.50
2018,10,15,10,24,7.50
2018,10,15,10,25,7.60
2018,10,15,10,26,7.70
2018,10,15,10,27,7.70
2018,10,15,10,28,7.70
2018,10,15,10,29,7.80
2018,10,15,10,30,7.80
2018,10,15,10,31,7.90
2018,10,15,10,32,7.90
2018,10,15,10,33,8.00
2018,10,15,10,34,8.00
2018,10,15,10,35,8.10
2018,10,15,10,36,8.20
2018,10,15,10,37,8.30
2018,10,15,10,38,8.30
2018,10,15,10,39,8.40
2018,10,15,10,40,8.50
2018,10,15,10,41,8.50
2018,10,15,10,42,8.60
2018,10,15,10,43,8.70
2018,10,15,10,44,8.70
2018,10,15,10,45,8.80
2018,10,15,10,46,8.90
2018,10,15,10,47,8.90
2018,10,15,10,48,9.00
2018,10,15,10,49,9.10
2018,10,15,10,50,9.10
2018,10,15,10,51,9.20
2018,10,15,10,52,9.20
2018,10,15,10,53,9.30
2018,10,15,10,54,9.30
2018,10,15,10,55,9.30
2018,10,15,10,56,9.40
2018,10,15,10,57,9.40
2018,10,15,10,58,9.40
2018,10,15,10,59,9.40
2018,10,15,11,00,9.50
2018,10,15,11,01,9.50
2018,10,15,11,02,9.60
2018,10,15,11,03,9.60
2018,10,15,11,04,9.70
2018,10,15,11,05,9.80
2018,10,15,11,06,9.80
2018,10,15,11,07,9.90
2018,10,15,11,08,9.90
2018,10,15,11,09,9.90
2018,10,15,11,10,9.90
2018,10,15,11,11,9.90
2018,10,15,11,12,10.00
2018,10,15,11,13,10.00
2018,10,15,11,14,10.00
2018,10,15,11,15,10.10
2018,10,15,11,16,10.10
2018,10,15,11,17,10.10
2018,10,15,11,18,10.20
2018,10,15,11,19,10.30
2018,10,15,11,20,10.30
2018,10,15,11,21,10.30
2018,10,15,11,22,10.40
2018,10,15,11,23,10.40
2018,10,15,11,24,10.50
2018,10,15,11,25,10.50
2018,10,15,11,26,10.60
2018,10,15,11,27,10.60
2018,10,15,11,28,10.60
2018,10,15,11,29,10.60
2018,10,15,11,30,10.60
2018,10,15,11,31,10.60
2018,10,15,11,32,10.60
2018,10,15,11,33,10.60
2018,10,15,11,34,10.50
2018,10,15,11,35,10.50
2018,10,15,11,36,10.50
2018,10,15,11,37,10.50
2018,10,15,11,38,10.40
2018,10,15,11,39,10.40
2018,10,15,11,40,10.40
2018,10,15,11,41,10.50
2018,10,15,11,42,10.50
2018,10,15,11,43,10.60
2018,10,15,11,44,10.60
2018,10,15,11,45,10.60
2018,10,15,11,46,10.60
2018,10,15,11,47,10.70
2018,10,15,11,48,10.70
2018,10,15,11,49,10.70
2018,10,15,11,50,10.70
2018,10,15,11,51,10.70
2018,10,15,11,52,10.70
2018,10,15,11,53,10.70
2018,10,15,11,54,10.70
2018,10,15,11,55,10.70
2018,10,15,11,56,10.70
2018,10,15,11,57,10.80
2018,10,15,11,58,10.80
2018,10,15,11,59,10.90
2018,10,15,12,00,10.90
2018,10,15,12,01,11.00
2018,10,15,12,02,11.10
2018,10,15,12,03,11.10
2018,10,15,12,04,11.20
2018,10,15,12,05,11.20
2018,10,15,12,06,11.30
2018,10,15,12,07,11.30
2018,10,15,12,08,11.30
2018,10,15,12,09,11.30
2018,10,15,12,10,11.30
2018,10,15,12,11,11.30
2018,10,15,12,12,11.30
2018,10,15,12,13,11.30
2018,10,15,12,14,11.40
2018,10,15,12,15,11.40
2018,10,15,12,16,11.40
2018,10,15,12,17,11.40
2018,10,15,12,18,11.40
2018,10,15,12,19,11.50
2018,10,15,12,20,11.50
2018,10,15,12,21,11.60
2018,10,15,12,22,11.60
2018,10,15,12,23,11.60
2018,10,15,12,24,11.70
2018,10,15,12,25,11.70
2018,10,15,12,26,11.80
2018,10,15,12,27,11.90
2018,10,15,12,28,11.90
2018,10,15,12,29,11.90
2018,10,15,12,30,11.90
2018,10,15,12,31,11.90
2018,10,15,12,32,11.90
2018,10,15,12,33,11.90
2018,10,15,12,34,11.90
2018,10,15,12,35,11.90
2018,10,15,12,36,11.80
2018,10,15,12,37,11.80
2018,10,15,12,38,11.80
2018,10,15,12,39,11.70
2018,10,15,12,40,11.70
2018,10,15,12,41,11.70
2018,10,15,12,42,11.70
2018,10,15,12,43,11.70
2018,10,15,12,44,11.70
2018,10,15,12,45,11.70
2018,10,15,12,46,11.70
2018,10,15,12,47,11.70
2018,10,15,12,48,11.80
2018,10,15,12,49,11.80
2018,10,15,12,50,11.90
2018,10,15,12,51,11.90
2018,10,15,12,52,12.00
2018,10,15,12,53,12.10
2018,10,15,12,54,12.10
2018,10,15,12,55,12.20
2018,10,15,12,56,12.30
2018,10,15,12,57,12.40
2018,10,15,12,58,12.40
2018,10,15,12,59,12.50
2018,10,15,13,00,12.50
2018,10,15,13,01,12.60
2018,10,15,13,02,12.60
2018,10,15,13,03,12.60
2018,10,15,13,04,12.60
2018,10,15,13,05,12.70
2018,10,15,13,06,12.70
2018,10,15,13,07,12.70
2018,10,15,13,08,12.70
2018,10,15,13,09,12.70
2018,10,15,13,10,12.70
2018,10,15,13,11,12.70
2018,10,15,13,12,12.70
2018,10,15,13,13,12.70
2018,10,15,13,14,12.70
2018,10,15,13,15,12.70
2018,10,15,13,16,12.70
2018,10,15,13,17,12.80
2018,10,15,13,18,12.80
2018,10,15,13,19,12.80
2018,10,15,13,20,12.80
2018,10,15,13,21,12.80
2018,10,15,13,22,12.80
2018,10,15,13,23,12.80
2018,10,15,13,24,12.80
2018,10,15,13,25,12.70
2018,10,15,13,26,12.70
2018,10,15,13,27,12.60
2018,10,15,13,28,12.60
2018,10,15,13,29,12.60
2018,10,15,13,30,12.50
2018,10,15,13,31,12.60
2018,10,15,13,32,12.60
2018,10,15,13,33,12.60
2018,10,15,13,34,12.60
2018,10,15,13,35,12.60
2018,10,15,13,36,12.60
2018,10,15,13,37,12.70
2018,10,15,13,38,12.70
2018,10,15,13,39,12.70
2018,10,15,13,40,12.80
2018,10,15,13,41,12.80
2018,10,15,13,42,12.80
2018,10,15,13,43,12.80
2018,10,15,13,44,12.90
2018,10,15,13,45,12.90
2018,10,15,13,46,12.90
2018,10,15,13,47,12.90
2018,10,15,13,48,13.00
2018,10,15,13,49,13.00
2018,10,15,13,50,13.10
2018,10,15,13,51,13.10
2018,10,15,13,52,13.10
2018,10,15,13,53,13.10
2018,10,15,13,54,13.20
2018,10,15,13,55,13.20
2018,10,15,13,56,13.20
2018,10,15,13,57,13.30
2018,10,15,13,58,13.30
2018,10,15,13,59,13.30
2018,10,15,14,00,13.30
2018,10,15,14,01,13.30
2018,10,15,14,02,13.40
2018,10,15,14,03,13.40
2018,10,15,14,04,13.40
2018,10,15,14,05,13.40
2018,10,15,14,06,13.40
2018,10,15,14,07,13.40
2018,10,15,14,08,13.40
2018,10,15,14,09,13.40
2018,10,15,14,10,13.40
2018,10,15,14,11,13.40
2018,10,15,14,12,13.40
2018,10,15,14,13,13.50
2018,10,15,14,14,13.50
2018,10,15,14,15,13.50
2018,10,15,14,16,13.50
2018,10,15,14,17,13.60
2018,10,15,14,18,13.60
2018,10,15,14,19,13.70
2018,10,15,14,20,13.70
2018,10,15,14,21,13.80
2018,10,15,14,22,13.80
2018,10,15,14,23,13.90
2018,10,15,14,24,13.90
2018,10,15,14,25,13.90
2018,10,15,14,26,14.00
2018,10,15,14,27,14.00
2018,10,15,14,28,14.10
2018,10,15,14,29,14.10
2018,10,15,14,30,14.10
2018,10,15,14,31,14.10
2018,10,15,14,32,14.10
2018,10,15,14,33,14.10
2018,10,15,14,34,14.10
2018,10,15,14,35,14.20
2018,10,15,14,36,14.20
2018,10,15,14,37,14.30
2018,10,15,14,38,14.30
2018,10,15,14,39,14.30
2018,10,15,14,40,14.30
2018,10,15,14,41,14.30
2018,10,15,14,42,14.30
2018,10,15,14,43,14.30
2018,10,15,14,44,14.30
2018,10,15,14,45,14.40
2018,10,15,14,46,14.40
2018,10,15,14,47,14.40
2018,10,15,14,48,14.40
2018,10,15,14,49,14.50
2018,10,15,14,50,14.50
2018,10,15,14,51,14.60
2018,10,15,14,52,14.60
2018,10,15,14,53,14.70
2018,10,15,14,54,14.70
2018,10,15,14,55,14.70
2018,10,15,14,56,14.70
2018,10,15,14,57,14.70
2018,10,15,14,58,14.70
2018,10,15,14,59,14.70
2018,10,15,15,00,14.70
2018,10,15,15,01,14.70
2018,10,15,15,02,14.70
2018,10,15,15,03,14.70
2018,10,15,15,04,14.80
2018,10,15,15,05,14.80
2018,10,15,15,06,14.90
2018,10,15,15,07,14.90
2018,10,15,15,08,15.00
2018,10,15,15,09,15.00
2018,10,15,15,10,15.10
2018,10,15,15,11,15.10
2018,10,15,15,12,15.10
2018,10,15,15,13,15.20
2018,10,15,15,14,15.20
2018,10,15,15,15,15.30
2018,10,15,15,16,15.30
2018,10,15,15,17,15.30
2018,10,15,15,18,15.40
2018,10,15,15,19,15.40
2018,10,15,15,20,15.50
2018,10,15,15,21,15.60
2018,10,15,15,22,15.60
2018,10,15,15,23,15.60
2018,10,15,15,24,15.60
2018,10,15,15,25,15.60
2018,10,15,15,26,15.60
2018,10,15,15,27,15.50
2018,10,15,15,28,15.50
2018,10,15,15,29,15.50
2018,10,15,15,30,15.50
2018,10,15,15,31,15.40
2018,10,15,15,32,15.40
2018,10,15,15,33,15.30
2018,10,15,15,34,15.30
2018,10,15,15,35,15.30
2018,10,15,15,36,15.20
2018,10,15,15,37,15.20
2018,10,15,15,38,15.20
2018,10,15,15,39,15.20
2018,10,15,15,40,15.20
2018,10,15,15,41,15.20
2018,10,15,15,42,15.20
2018,10,15,15,43,15.30
2018,10,15,15,44,15.30
2018,10,15,15,45,15.30
2018,10,15,15,46,15.20
2018,10,15,15,47,15.20
2018,10,15,15,48,15.20
2018,10,15,15,49,15.20
2018,10,15,15,50,15.20
2018,10,15,15,51,15.20
2018,10,15,15,52,15.10
2018,10,15,15,53,15.10
2018,10,15,15,54,15.10
2018,10,15,15,55,15.10
2018,10,15,15,56,15.10
2018,10,15,15,57,15.10
2018,10,15,15,58,15.10
2018,10,15,15,59,15.10
2018,10,15,16,00,15.10
2018,10,15,16,01,15.10
2018,10,15,16,02,15.10
2018,10,15,16,03,15.20
2018,10,15,16,04,15.20
2018,10,15,16,05,15.20
2018,10,15,16,06,15.20
2018,10,15,16,07,15.20
2018,10,15,16,08,15.20
2018,10,15,16,09,15.20
2018,10,15,16,10,15.20
2018,10,15,16,11,15.20
2018,10,15,16,12,15.20
2018,10,15,16,13,15.20
2018,10,15,16,14,15.20
2018,10,15,16,15,15.20
2018,10,15,16,16,15.30
2018,10,15,16,17,15.30
2018,10,15,16,18,15.30
2018,10,15,16,19,15.40
2018,10,15,16,20,15.40
2018,10,15,16,21,15.40
2018,10,15,16,22,15.50
2018,10,15,16,23,15.50
2018,10,15,16,24,15.60
2018,10,15,16,25,15.60
2018,10,15,16,26,15.60
2018,10,15,16,27,15.60
2018,10,15,16,28,15.60
2018,10,15,16,29,15.60
2018,10,15,16,30,15.60
2018,10,15,16,31,15.60
2018,10,15,16,32,15.60
2018,10,15,16,33,15.60
2018,10,15,16,34,15.60
2018,10,15,16,35,15.60
2018,10,15,16,36,15.60
2018,10,15,16,37,15.60
2018,10,15,16,38,15.60
2018,10,15,16,39,15.60
2018,10,15,16,40,15.60
2018,10,15,16,41,15.60
2018,10,15,16,42,15.60
2018,10,15,16,43,15.60
2018,10,15,16,44,15.60
2018,10,15,16,45,15.60
2018,10,15,16,46,15.60
2018,10,15,16,47,15.50
2018,10,15,16,48,15.50
2018,10,15,16,49,15.40
2018,10,15,16,50,15.30
2018,10,15,16,51,15.20
2018,10,15,16,52,15.20
2018,10,15,16,53,15.10
2018,10,15,16,54,15.00
2018,10,15,16,55,14.90
2018,10,15,16,56,14.90
2018,10,15,16,57,14.80
2018,10,15,16,58,14.70
2018,10,15,16,59,14.70
2018,10,15,17,00,14.60
2018,10,15,17,01,14.50
2018,10,15,17,02,14.50
2018,10,15,17,03,14.40
2018,10,15,17,04,14.30
2018,10,15,17,05,14.30
2018,10,15,17,06,14.20
2018,10,15,17,07,14.10
2018,10,15,17,08,14.10
2018,10,15,17,09,14.00
2018,10,15,17,10,14.00
2018,10,15,17,11,13.90
2018,10,15,17,12,13.90
2018,10,15,17,13,13.80
2018,10,15,17,14,13.80
2018,10,15,17,15,13.80
2018,10,15,17,16,13.80
2018,10,15,17,17,13.70
2018,10,15,17,18,13.70
2018,10,15,17,19,13.70
2018,10,15,17,20,13.60
2018,10,15,17,21,13.60
2018,10,15,17,22,13.60
2018,10,15,17,23,13.60
2018,10,15,17,24,13.50
2018,10,15,17,25,13.50
2018,10,15,17,26,13.50
2018,10,15,17,27,13.40
2018,10,15,17,28,13.40
2018,10,15,17,29,13.40
2018,10,15,17,30,13.30
2018,10,15,17,31,13.30
2018,10,15,17,32,13.20
2018,10,15,17,33,13.20
2018,10,15,17,34,13.10
2018,10,15,17,35,13.10
2018,10,15,17,36,13.10
2018,10,15,17,37,13.00
2018,10,15,17,38,13.00
2018,10,15,17,39,12.90
2018,10,15,17,40,12.90
2018,10,15,17,41,12.90
2018,10,15,17,42,12.80
2018,10,15,17,43,12.80
2018,10,15,17,44,12.80
2018,10,15,17,45,12.80
2018,10,15,17,46,12.80
2018,10,15,17,47,12.70
2018,10,15,17,48,12.70